EZY2075 EGCC-LGKF

Flight info

Callsign EZY2075
Flight time N/A
Altitude 37000
Route DCT SANBA N859 HON L15 MOTOX UL15 ETINO DCT BEGAR DCT TRA DCT GAMSA N871 MADEB M738 NATAG DCT LAMPO DCT ROTAR DCT ELGUS DCT AIOSA DCT LATAN UM872 ASTUS ASTUS1P
Aircraft A319/M-SDE3FGHIRWY/LB1

Departure

Time N/A
Airport Manchester Airport (EGCC)

Arrival

Time 2026-05-05 11:27
Airport Kefallinia Airport (LGKF)
Time Latitude Longitude Altitude Speed Heading
2026-05-05 11:18 37.96812 20.49347 3007 ft 146 kts 357°
2026-05-05 11:18 37.97827 20.49480 3009 ft 148 kts 11°
2026-05-05 11:19 37.98806 20.49901 3011 ft 150 kts 22°
2026-05-05 11:19 37.99698 20.50596 3010 ft 152 kts 36°
2026-05-05 11:19 38.00452 20.51541 3012 ft 153 kts 50°
2026-05-05 11:19 38.01019 20.52691 3009 ft 155 kts 63°
2026-05-05 11:20 38.01193 20.57243 3026 ft 159 kts 110°
2026-05-05 11:20 37.98342 20.61440 2742 ft 157 kts 139°
2026-05-05 11:20 37.96739 20.63254 2294 ft 155 kts 140°
2026-05-05 11:20 37.95954 20.64190 2062 ft 155 kts 130°
2026-05-05 11:21 37.95498 20.65430 2004 ft 156 kts 101°
2026-05-05 11:21 37.95542 20.66777 2015 ft 157 kts 72°
2026-05-05 11:21 37.96062 20.67965 2009 ft 154 kts 45°
2026-05-05 11:21 37.96928 20.68726 2007 ft 151 kts 19°
2026-05-05 11:22 37.97947 20.68921 2007 ft 148 kts 351°
2026-05-05 11:22 37.98918 20.68546 2011 ft 146 kts 327°
2026-05-05 11:22 37.99656 20.67706 2008 ft 143 kts 303°
2026-05-05 11:22 38.00069 20.66572 2015 ft 142 kts 289°
2026-05-05 11:23 38.00400 20.65398 2012 ft 140 kts 289°
2026-05-05 11:23 38.00729 20.64244 2015 ft 139 kts 289°
2026-05-05 11:23 38.01057 20.63090 2008 ft 139 kts 289°
2026-05-05 11:23 38.01388 20.61935 2010 ft 139 kts 289°
2026-05-05 11:24 38.01934 20.60032 2018 ft 140 kts 289°
2026-05-05 11:24 38.03306 20.57507 1988 ft 142 kts 323°
2026-05-05 11:24 38.04133 20.56785 1765 ft 144 kts 324°
2026-05-05 11:24 38.04947 20.56071 1567 ft 142 kts 323°
2026-05-05 11:25 38.05758 20.55356 1372 ft 142 kts 324°
2026-05-05 11:25 38.06571 20.54640 1178 ft 142 kts 324°
2026-05-05 11:25 38.07372 20.53934 996 ft 141 kts 323°
2026-05-05 11:25 38.08158 20.53240 811 ft 135 kts 324°
2026-05-05 11:26 38.08917 20.52568 641 ft 131 kts 321°
2026-05-05 11:26 38.09672 20.51900 461 ft 133 kts 323°
2026-05-05 11:26 38.10468 20.51310 275 ft 133 kts 328°
2026-05-05 11:26 38.11247 20.50690 70 ft 131 kts 323°
2026-05-05 11:27 38.11922 20.50113 53 ft 87 kts 327°
2026-05-05 11:27 38.12188 20.49891 53 ft 18 kts 326°
2026-05-05 11:27 38.12284 20.49809 55 ft 16 kts 326°
2026-05-05 11:27 38.12381 20.49728 55 ft 18 kts 326°
2026-05-05 11:28 38.12527 20.49613 54 ft 31 kts 330°
2026-05-05 11:28 38.12724 20.49442 51 ft 36 kts 324°
2026-05-05 11:28 38.12853 20.49285 47 ft 16 kts 312°
2026-05-05 11:28 38.12878 20.49306 46 ft 8 kts 129°
2026-05-05 11:29 38.12725 20.49438 51 ft 45 kts 146°
2026-05-05 11:29 38.12458 20.49668 54 ft 46 kts 146°
2026-05-05 11:29 38.12197 20.49884 53 ft 44 kts 146°
2026-05-05 11:29 38.11960 20.50085 53 ft 30 kts 146°
2026-05-05 11:30 38.11893 20.50257 56 ft 17 kts 89°
2026-05-05 11:30 38.11852 20.50336 56 ft 11 kts 142°
2026-05-05 11:30 38.11837 20.50414 56 ft 10 kts 60°
2026-05-05 11:30 38.11859 20.50454 53 ft 0 kts 57°
2026-05-05 11:31 38.11857 20.50452 53 ft 0 kts 57°
2026-05-05 12:05 38.11855 20.50448 53 ft 3 kts 57°
2026-05-05 12:05 38.11842 20.50424 48 ft 2 kts 56°
2026-05-05 12:06 38.11828 20.50398 49 ft 4 kts 50°
2026-05-05 12:06 38.11809 20.50373 51 ft 4 kts 36°
2026-05-05 12:06 38.11790 20.50360 50 ft 0 kts 18°
2026-05-05 12:08 38.11793 20.50357 56 ft 0 kts 349°
2026-05-05 12:08 38.11789 20.50346 50 ft 3 kts 238°
2026-05-05 12:08 38.11726 20.50319 55 ft 15 kts 187°
2026-05-05 12:08 38.11623 20.50370 51 ft 17 kts 147°
2026-05-05 12:09 38.11483 20.50489 54 ft 31 kts 145°
2026-05-05 12:09 38.11306 20.50639 51 ft 24 kts 147°
2026-05-05 12:09 38.11166 20.50764 41 ft 16 kts 127°
2026-05-05 12:09 38.11106 20.50788 39 ft 9 kts 284°
2026-05-05 12:10 38.11156 20.50757 41 ft 9 kts 339°
2026-05-05 12:10 38.11223 20.50714 44 ft 12 kts 326°
2026-05-05 12:10 38.11310 20.50634 51 ft 32 kts 329°
2026-05-05 12:10 38.11709 20.50296 52 ft 103 kts 326°
2026-05-05 12:11 38.12469 20.49642 70 ft 156 kts 322°
2026-05-05 12:11 38.13335 20.48825 705 ft 150 kts 320°
2026-05-05 12:11 38.14178 20.48014 1206 ft 164 kts 320°
2026-05-05 12:11 38.15234 20.47027 1363 ft 212 kts 322°
2026-05-05 12:12 38.16439 20.45942 2387 ft 212 kts 324°
2026-05-05 12:12 38.17656 20.44864 3424 ft 215 kts 324°
2026-05-05 12:12 38.18867 20.43789 4462 ft 216 kts 324°
2026-05-05 12:12 38.20113 20.42677 5476 ft 221 kts 324°
2026-05-05 12:13 38.21387 20.41541 6487 ft 226 kts 325°
2026-05-05 12:13 38.22681 20.40386 7486 ft 228 kts 325°
2026-05-05 12:13 38.23984 20.39216 8511 ft 230 kts 326°
2026-05-05 12:13 38.25296 20.38011 9510 ft 238 kts 322°
2026-05-05 12:14 38.26411 20.36310 10066 ft 266 kts 300°
2026-05-05 12:14 38.27049 20.33974 10565 ft 293 kts 288°